Regional Weather Roundup
Issued by NWS

Home | Current Version | Previous Version | Text Only | Print | Product List | Glossary Off
Versions: 1 2 3 4 5 6 7 8 9 10 11 12 13 14 15 16 17 18 19 20 21 22 23 24 25 26 27 28 29 30 31 32 33 34 35 36 37 38 39 40 41 42 43 44 45 46 47 48 49 50

000
ASUS43 KMKX 210311
RWRWI

WISCONSIN REGIONAL WEATHER ROUNDUP
NATIONAL WEATHER SERVICE MILWAUKEE/SULLIVAN WI
1000 PM CDT WED AUG 20 2014

NOTE: "FAIR" INDICATES FEW OR NO CLOUDS BELOW 12,000 FEET WITH NO
SIGNIFICANT WEATHER AND/OR OBSTRUCTIONS TO VISIBILITY.

WIZ001-002-006>008-014>016-023>028-210400-
NORTHWEST WISCONSIN

CITY           SKY/WX    TMP DP  RH WIND       PRES   REMARKS
SUPERIOR ARPT  CLEAR     61  60  96 NE7       29.93S
ASHLAND        MOCLDY    62  59  90 NE5       29.95R
HAYWARD        PTCLDY    61  60  97 CALM      29.95R
SIREN          MOCLDY    66  62  85 E3        29.93R
RICE LAKE      PTCLDY    65  61  87 E5        29.94S
LADYSMITH      CLEAR     63  61  94 E5        29.97S
EAU CLAIRE     MOCLDY    66  65  96 NE6       29.91S
MENOMONIE      MOCLDY    68  64  89 E5        29.91S
NEW RICHMOND   MOCLDY    67  63  86 E3        29.91R
OSCEOLA        MOCLDY    69  66  92 E7        29.93R
$$

WIZ003>005-009-010-017-018-210400-
NORTH CENTRAL WISCONSIN

CITY           SKY/WX    TMP DP  RH WIND       PRES   REMARKS
WOODRUFF       CLOUDY    64  60  85 CALM      29.96S
RHINELANDER    MOCLDY    61  59  93 CALM      29.98R
EAGLE RIVER    CLOUDY    63  61  94 NE6       29.97S
LAND O LAKES   CLOUDY    62  60  92 CALM      29.99S
PHILLIPS       MOCLDY    59  59 100 CALM      29.96R
TOMAHAWK       CLEAR     57  56  95 CALM      29.97R FOG
MEDFORD        FOG       59  59 100 E3        29.96S VSB 1
MERRILL        CLEAR     58  58 100 CALM      29.97R
$$

WIZ029-030-035-036-043>047-210400-
CENTRAL WISCONSIN

CITY           SKY/WX    TMP DP  RH WIND       PRES   REMARKS
WAUSAU         PTCLDY    64  62  93 E3        29.95R
MOSINEE        CLEAR     63  63 100 VRB3      29.97R
MARSHFIELD     PTCLDY    66  62  87 CALM      29.95R
STEVENS POINT  PTCLDY    61  59  93 CALM      29.96R
WAUPACA        PTCLDY    67  64  92 CALM      29.95R
WAUTOMA        PTCLDY    67  65  93 CALM      29.95R
WISC RAPIDS    PTCLDY    66  63  90 E3        29.96R
CAMP DOUGLAS   MOCLDY    63  63 100 CALM      29.93R
$$

WIZ011>013-019>022-031-037>040-048>050-210400-
NORTHEAST WISCONSIN

CITY           SKY/WX    TMP DP  RH WIND       PRES   REMARKS
ANTIGO         CLEAR     59  58  97 CALM      29.97R
STURGEON BAY   CLOUDY    64  61  88 SE6       29.95R
GREEN BAY      MOCLDY    63  62  97 CALM      29.94R
MANITOWOC      MOCLDY    64  63  96 CALM      29.95R FOG
APPLETON       MOCLDY    68  61  77 CALM      29.94S
CLINTONVILLE   CLEAR     63  61  94 CALM      29.94S
OSHKOSH        PTCLDY    69  66  90 SE7       29.93S
$$

WIZ032>034-041-042-053>061-210400-
SOUTHWEST WISCONSIN

CITY           SKY/WX    TMP DP  RH WIND       PRES   REMARKS
LA CROSSE      CLOUDY    76  68  76 E7        29.89R
SPARTA         PTCLDY    69  64  83 CALM      29.92S
VIROQUA        FAIR      70  70  98 CALM      29.93R
BOSCOBEL       PTCLDY    71  67  87 CALM      29.90S
PRAIRIE DU CHI PTCLDY    70  65  85 CALM      29.90R
PLATTEVILLE    FAIR      70  67  89 E3        29.93S
$$

WIZ056-057-062-063-064-067-068-210400-
SOUTH CENTRAL WISCONSIN

CITY           SKY/WX    TMP DP  RH WIND       PRES   REMARKS
BARABOO/DELLS  PTCLDY    71  65  80 E9        29.93R
LONE ROCK      CLEAR     75  68  78 CALM      29.91R
WATERTOWN      MOCLDY    68  65  91 E6        29.92R
MADISON        MOCLDY    75  67  76 CALM      29.91R
MIDDLETON      MOCLDY    75  68  78 W6        29.92R
MONROE         MOCLDY    72  68  88 W7        29.93S
JANESVILLE     MOCLDY    73  66  78 CALM      29.91S
$$

WIZ051-052-058>065-066-070>072-210400-
SOUTHEAST WISCONSIN

CITY           SKY/WX    TMP DP  RH WIND       PRES   REMARKS
MILWAUKEE      PTCLDY    68  64  87 E5        29.94R
WAUKESHA       PTCLDY    64  61  88 E3        29.95R
MILWAUKEE/TIMM PTCLDY    68  63  83 CALM      29.95R
RACINE         MOCLDY    70  65  84 E6        29.95R
BURLINGTON     CLOUDY    69  67  91 CALM      29.93R
KENOSHA        CLOUDY    71  67  87 E7        29.93R
FOND DU LAC    PTCLDY    68  64  87 E5        29.94R
SHEBOYGAN      CLOUDY    66  63  90 NE5       29.94S
WEST BEND      MOCLDY    64  61  88 NE3       29.95S
JUNEAU         PTCLDY    67  39  35 E5        29.95R
$$

LSZ147-162-210400-
LAKE SUPERIOR

STATION/POSITION TIME  TEMP    WIND        PRES    WAVE
                       AIR SEA DIR/SP/G            HT/PER
                 (UTC) (F)     (DEG/KT/KT) (MB)    (FT/S)
W MID LAKE BUOY  0250   59 59   90/  4/  4 1014.6R   0
DEVILS ISLAND    0300   63      90/  7/  7 1014.3R
PORT WING        0240   66      80/  2/  5 1013.5S
SAXON HARBOR     0200   65        CALM     1014.2R
$$

LMZ867-665-643>646-210400-
LAKE MICHIGAN

STATION/POSITION TIME  TEMP    WIND        PRES    WAVE
                       AIR SEA DIR/SP/G            HT/PER
                 (UTC) (F)     (DEG/KT/KT) (MB)    (FT/S)
N MID LAKE BUOY  0250   63 62  130/  2/  2 1013.3S   0
NORTHPORT PIER   0200   64     110/  2/  2 1013.5S
SISTER BAY       0241   63        CALM       N/A
KEWAUNEE LAKESHO 0200   65     180/  4/  5 1012.8R
SHEBOYGAN LAKESH 0300   66 64   60/  2/  2 1014.1R
ATWATER BUOY     0300   69      80/  6/  6 1014.8R
MILWAUKEE LAKESH 0200   69      50/  6/  7   N/A
S MID LAKE BUOY  0250   68 68   60/  6/  6 1013.6R   0
KENOSHA   LAKESH 0300   71      80/  6/  7 1013.2R
$$

TC  - TEMPERATURE IN CELSIUS
VSB - VISIBILITY IN STATUTE MILES
WCI - WIND CHILL INDEX
HX  - HEAT INDEX



USA.gov is the U.S. government's official web portal to all federal, state and local government web resources and services.